Location: *
(55.5817°S, 142.4781°W)
Time: 07:03:42
(UTC+00:00)

Meteor 1-12 Rocket - Pass Details

Date: 29 April 2025
Orbit: 853 x 926 km, 81.2° (Epoch: 23 May)

Event Time Altitude Azimuth Distance (km) Brightness Sun altitude
Rises 15:19:50 0° 340° (NNW) 3,477 7.3 -13.1°
Reaches altitude 10° 15:22:15 10° 337° (NNW) 2,555 6.5 -12.8°
Maximum altitude 15:28:05 71° 253° (WSW) 963 4.3 -12.0°
Drops below altitude 10° 15:34:06 10° 168° (SSE) 2,634 6.8 -11.1°
Sets 15:36:38 0° 165° (SSE) 3,591 7.5 -10.8°
